FW9312 Weather Reports


time (UTC)temp
C
wind
direction
speed
KPH
gust
KPH
rain 1hr
cm
rain 24hr
cm
rain mn
cm
humidity
%
barometer
mb
20260504081956 6 249 0.0 0.0 0.00 0.00 0.00 87 1015.3
20260504081454 6 249 0.0 0.0 0.00 0.00 0.00 86 1015.3
20260504080949 6 249 0.0 0.0 0.00 0.00 0.00 86 1015.5
20260504080446 5 249 0.0 0.0 0.00 0.00 0.00 86 1015.5
20260504050259 6 250 0.0 1.6 0.00 0.00 0.00 75 1016.1
20260504045757 6 250 1.6 1.6 0.00 0.00 0.00 75 1016.3
20260504045256 6 253 0.0 0.0 0.00 0.00 0.00 79 1016.1
20260504044754 6 253 0.0 0.0 0.00 0.00 0.00 79 1016.1
20260504044252 5 253 0.0 0.0 0.00 0.00 0.00 80 1016.1
20260504043748 6 253 0.0 0.0 0.00 0.00 0.00 80 1016.1
20260504043245 6 253 0.0 0.0 0.00 0.00 0.00 80 1016.1
20260504042743 5 253 0.0 0.0 0.00 0.00 0.00 81 1016.0
20260504042239 5 253 0.0 0.0 0.00 0.00 0.00 82 1016.0
20260504041736 5 255 0.0 0.0 0.00 0.00 0.00 82 1015.8
20260504041232 5 251 0.0 0.0 0.00 0.00 0.00 82 1016.0
20260504040728 5 253 0.0 0.0 0.00 0.00 0.00 81 1015.8
20260504040226 5 251 0.0 0.0 0.00 0.00 0.00 80 1015.7
20260504035721 5 253 0.0 0.0 0.00 0.00 0.00 80 1015.8
20260504035219 5 253 0.0 0.0 0.00 0.00 0.00 79 1015.7
20260504034716 6 251 0.0 0.0 0.00 0.00 0.00 79 1015.7
20260504034213 6 253 0.0 0.0 0.00 0.00 0.00 79 1015.6
20260504033711 6 253 0.0 0.0 0.00 0.00 0.00 79 1015.8
20260504033208 6 251 0.0 0.0 0.00 0.00 0.00 78 1015.6
20260504032705 6 251 0.0 0.0 0.00 0.00 0.00 78 1015.5
20260504032202 6 253 0.0 0.0 0.00 0.00 0.00 78 1015.6
20260504031659 6 251 0.0 0.0 0.00 0.00 0.00 77 1015.7
20260504031155 6 251 0.0 0.0 0.00 0.00 0.00 74 1015.5
20260504030652 6 251 0.0 0.0 0.00 0.00 0.00 75 1015.5
20260504030149 7 253 0.0 0.0 0.00 0.00 0.00 74 1015.3
20260504025646 7 253 0.0 0.0 0.00 0.00 0.00 73 1015.2
20260504025142 7 253 0.0 0.0 0.00 0.00 0.00 71 1015.4
20260504024640 7 251 0.0 0.0 0.00 0.00 0.00 70 1015.4
20260504024136 7 253 0.0 0.0 0.00 0.00 0.00 71 1015.4
20260504023633 7 251 0.0 0.0 0.00 0.00 0.00 70 1015.4
20260504023129 7 253 0.0 0.0 0.00 0.00 0.00 68 1015.3
20260504022625 7 253 0.0 0.0 0.00 0.00 0.00 68 1015.4
20260504022121 8 253 0.0 0.0 0.00 0.00 0.00 68 1015.6
20260504021620 8 251 0.0 0.0 0.00 0.00 0.00 67 1015.2
20260504021116 8 253 0.0 0.0 0.00 0.00 0.00 67 1015.3
20260504020613 8 253 0.0 0.0 0.00 0.00 0.00 67 1015.2
20260504020109 8 251 0.0 0.0 0.00 0.00 0.00 62 1015.2
20260504015606 8 253 0.0 0.0 0.00 0.00 0.00 61 1015.1
20260504015102 9 253 0.0 0.0 0.00 0.00 0.00 61 1015.2
20260504014558 9 251 0.0 0.0 0.00 0.00 0.00 60 1015.0
20260504014055 9 253 0.0 0.0 0.00 0.00 0.00 59 1015.2
20260504013553 10 251 0.0 0.0 0.00 0.00 0.00 57 1015.1
20260504013049 10 253 0.0 0.0 0.00 0.00 0.00 56 1015.2
20260504012547 10 251 0.0 0.0 0.00 0.00 0.00 56 1015.0
20260504012045 10 251 0.0 0.0 0.00 0.00 0.00 55 1014.8
20260504011541 11 251 0.0 0.0 0.00 0.00 0.00 53 1014.9
20260504011037 11 251 0.0 0.0 0.00 0.00 0.00 52 1014.7
20260504010533 11 251 0.0 0.0 0.00 0.00 0.00 51 1014.9
20260504010029 11 251 0.0 0.0 0.00 0.00 0.00 47 1014.8
20260504005526 12 251 0.0 0.0 0.00 0.00 0.00 50 1014.7
20260504005024 13 251 0.0 0.0 0.00 0.00 0.00 46 1014.8
20260504004522 13 252 0.0 1.6 0.00 0.00 0.00 39 1014.6
20260504004018 13 252 0.0 1.6 0.00 0.00 0.00 38 1014.7
20260504003514 13 251 0.0 1.6 0.00 0.00 0.00 38 1014.5
20260504003011 13 247 0.0 0.0 0.00 0.00 0.00 39 1014.6
20260504002508 13 248 0.0 0.0 0.00 0.00 0.00 38 1014.5
20260504002006 14 249 0.0 0.0 0.00 0.00 0.00 37 1014.5
20260504001503 14 249 0.0 0.0 0.00 0.00 0.00 37 1014.4
20260504000959 15 250 0.0 0.0 0.00 0.00 0.00 36 1014.4
20260504000457 15 250 0.0 0.0 0.00 0.00 0.00 35 1014.4
20260503235954 15 279 3.2 3.2 0.00 0.00 0.00 34 1014.4
20260503235452 15 257 1.6 1.6 0.00 0.00 0.00 34 1014.4
20260503234948 15 265 3.2 3.2 0.00 0.00 0.00 34 1014.3
20260503234446 15 254 1.6 1.6 0.00 0.00 0.00 33 1014.2
20260503233944 16 266 6.4 6.4 0.00 0.00 0.00 33 1014.2
20260503233440 16 240 1.6 1.6 0.00 0.00 0.00 33 1014.2
20260503232937 16 316 4.8 4.8 0.00 0.00 0.00 32 1014.1
20260503232434 16 247 3.2 3.2 0.00 0.00 0.00 33 1014.2
20260503231932 16 234 3.2 4.8 0.00 0.00 0.00 32 1014.2
20260503231429 16 215 1.6 1.6 0.00 0.00 0.00 33 1014.1
20260503230925 16 260 3.2 4.8 0.00 0.00 0.00 32 1013.8
20260503230422 16 250 4.8 4.8 0.00 0.00 0.00 32 1013.9
20260503225920 16 244 0.0 0.0 0.00 0.00 0.00 32 1013.9
20260503225416 16 282 3.2 4.8 0.00 0.00 0.00 31 1013.8
20260503224912 17 238 4.8 6.4 0.00 0.00 0.00 30 1013.9
20260503224409 17 253 3.2 4.8 0.00 0.00 0.00 30 1013.9
20260503223906 17 255 3.2 3.2 0.00 0.00 0.00 30 1013.8
20260503223404 18 245 4.8 4.8 0.00 0.00 0.00 30 1013.9
20260503222859 18 274 1.6 3.2 0.00 0.00 0.00 30 1014.0
20260503222358 18 186 3.2 4.8 0.00 0.00 0.00 30 1014.1
20260503221856 18 224 3.2 3.2 0.00 0.00 0.00 29 1014.0
20260503221354 18 228 1.6 3.2 0.00 0.00 0.00 29 1014.1
20260503220850 18 242 0.0 1.6 0.00 0.00 0.00 31 1014.2
20260503220347 18 237 1.6 1.6 0.00 0.00 0.00 29 1014.2
20260503215844 17 240 3.2 4.8 0.00 0.00 0.00 30 1014.1
20260503215341 17 230 4.8 4.8 0.00 0.00 0.00 31 1014.3
20260503214838 17 280 6.4 6.4 0.00 0.00 0.00 30 1014.0
20260503214336 18 188 3.2 3.2 0.00 0.00 0.00 31 1014.1
20260503213833 18 247 6.4 9.7 0.00 0.00 0.00 29 1014.3
20260503213331 18 218 1.6 3.2 0.00 0.00 0.00 30 1014.3
20260503212827 18 223 4.8 6.4 0.00 0.00 0.00 30 1014.2
20260503212325 18 239 4.8 6.4 0.00 0.00 0.00 31 1014.1
20260503211822 18 243 3.2 3.2 0.00 0.00 0.00 30 1014.1
20260503211319 18 223 1.6 1.6 0.00 0.00 0.00 30 1014.2
20260503210819 18 195 9.7 14.5 0.00 0.00 0.00 29 1014.1
20260503210317 18 240 3.2 4.8 0.00 0.00 0.00 31 1014.1
20260503205812 18 285 4.8 4.8 0.00 0.00 0.00 29 1014.1
20260503205308 18 211 3.2 4.8 0.00 0.00 0.00 29 1014.0
20260503204805 18 245 3.2 6.4 0.00 0.00 0.00 30 1014.2
20260503204303 18 248 4.8 6.4 0.00 0.00 0.00 30 1014.2
20260503203800 18 267 3.2 6.4 0.00 0.00 0.00 30 1014.0
20260503203257 18 285 3.2 3.2 0.00 0.00 0.00 31 1014.1
20260503202754 18 279 3.2 4.8 0.00 0.00 0.00 29 1014.1
20260503202252 18 253 6.4 9.7 0.00 0.00 0.00 29 1014.1
20260503201749 18 232 4.8 6.4 0.00 0.00 0.00 28 1014.4
20260503201247 18 261 4.8 9.7 0.00 0.00 0.00 29 1014.4
20260503200744 18 206 3.2 3.2 0.00 0.00 0.00 29 1014.6
20260503200239 17 296 1.6 3.2 0.00 0.00 0.00 28 1014.6
20260503195737 17 308 4.8 9.7 0.00 0.00 0.00 30 1014.8
20260503195233 17 287 9.7 12.9 0.00 0.00 0.00 30 1015.0
20260503194732 17 271 4.8 4.8 0.00 0.00 0.00 30 1014.7
20260503194226 17 240 3.2 4.8 0.00 0.00 0.00 30 1014.9
20260503193723 17 251 3.2 3.2 0.00 0.00 0.00 30 1014.9
20260503193219 17 237 6.4 6.4 0.00 0.00 0.00 30 1015.1
20260503192715 16 241 6.4 6.4 0.00 0.00 0.00 31 1015.2
20260503192210 16 259 3.2 4.8 0.00 0.00 0.00 31 1015.1
20260503191707 16 229 3.2 4.8 0.00 0.00 0.00 32 1015.4
20260503191204 16 267 3.2 3.2 0.00 0.00 0.00 33 1015.2
20260503190701 16 219 1.6 1.6 0.00 0.00 0.00 32 1015.3
20260503190158 15 220 6.4 9.7 0.00 0.00 0.00 32 1015.4
20260503185655 15 260 3.2 6.4 0.00 0.00 0.00 33 1015.7
20260503185150 15 302 9.7 14.5 0.00 0.00 0.00 33 1015.5
20260503184645 15 236 14.5 20.9 0.00 0.00 0.00 31 1015.7
20260503184142 15 251 4.8 6.4 0.00 0.00 0.00 33 1015.4
20260503183638 15 264 4.8 6.4 0.00 0.00 0.00 34 1015.6
20260503183136 15 257 3.2 4.8 0.00 0.00 0.00 34 1015.8
20260503182634 15 249 9.7 11.3 0.00 0.00 0.00 35 1015.9
20260503182132 15 229 4.8 6.4 0.00 0.00 0.00 34 1016.0
20260503181629 15 331 1.6 1.6 0.00 0.00 0.00 35 1016.1
20260503181125 14 232 1.6 3.2 0.00 0.00 0.00 36 1016.0
20260503180622 15 206 4.8 6.4 0.00 0.00 0.00 36 1016.0
20260503180120 14 189 3.2 3.2 0.00 0.00 0.00 37 1016.1
20260503175617 15 252 1.6 3.2 0.00 0.00 0.00 36 1016.2
20260503175114 14 254 3.2 3.2 0.00 0.00 0.00 37 1016.2
20260503174611 15 193 8.0 9.7 0.00 0.00 0.00 37 1016.4
20260503174108 15 259 6.4 9.7 0.00 0.00 0.00 36 1016.5
20260503173602 14 248 4.8 4.8 0.00 0.00 0.00 37 1016.2
20260503173059 14 335 3.2 4.8 0.00 0.00 0.00 36 1016.3
20260503172556 13 279 6.4 12.9 0.00 0.00 0.00 38 1016.5
20260503172054 13 181 1.6 3.2 0.00 0.00 0.00 39 1016.3
20260503171550 13 234 6.4 9.7 0.00 0.00 0.00 38 1016.5
20260503171048 13 228 4.8 6.4 0.00 0.00 0.00 37 1016.4
20260503170544 13 231 3.2 4.8 0.00 0.00 0.00 38 1016.6
20260503150936 11 259 6.4 9.7 0.00 0.00 0.00 41 1017.6
20260503150433 12 232 6.4 9.7 0.00 0.00 0.00 42 1017.7
20260503131326 10 242 4.8 9.7 0.00 0.00 0.00 50 1018.0
20260503130823 10 250 1.6 3.2 0.00 0.00 0.00 50 1017.9
20260503130321 9 235 3.2 3.2 0.00 0.00 0.00 51 1018.0
20260503110714 5 278 0.0 1.6 0.00 0.00 0.00 68 1017.1
20260503110212 4 269 0.0 0.0 0.00 0.00 0.00 70 1017.1
20260503100138 4 250 0.0 1.6 0.00 0.00 0.00 71 1016.1